SCP
0 -0 -0 0 0 0 0 0 0 0 0 0 0 0 0 0 0 0 0 0 0 0 0 0 0 0 0 0 0 0 0 0 0 0 0 0 0 0 0 0 0 0 0
-0 0 0 0 0 0 0 0 0 0 0 0 0 0 0 0 0 0 0 0 0 0 0 0 0 0 0 0 0 0 0 0 0 0 0 0 0 0 0 0 0 0 0
0 0 0 0 0 0 0 0 0 0 0 0 0 0 0 0 0 0 0 0 0 0 0 0 0 0 0 0 0 0 0 0 0 0 0 0 0 0 0 0 0 0 0
0 0 0 0 0 0 0 0 0 0 0 0 0 0 0 0 0 0 0 0 0 0 0 0 0 0 0 0 0 0 0 0 0 0 0 0 0 0 0 0 0 0 0
0 0 0 0 0 0 0 0 0 0 0 0 0 0 0 0 0 0 0 0 0 0 0 0 0 0 0 0 0 0 0 0 0 0 0 0 0 0 0 0 0 0 0
0 0 0 0 0 0 0 0 0 0 0 0 0 0 0 0 0 0 0 0 0 0 0 0 0 0 0 0 0 0 0 0 0 0 0 0 0 0 0 0 0 0 0
0 0 0 0 0 0 0 0 0 0 0 0 0 0 0 0 0 0 0 0 0 0 0 0 0 0 0 0 0 0 0 0 0 0 0 0 0 0 0 0 0 0 0
0 0 0 0 0 0 0 0 0 0 0 0 0 0 0 0 0 0 0 0 0 0 0 0 0 0 0 0 0 0 0 0 0 0 0 0 0 0 0 0 0 0 0
0 0 0 0 0 0 0 0 0 0 0 0 0 0 0 0 0 0 0 0 0 0 0 0 0 0 0 0 0 0 0 0 0 0 0 0 0 0 0 0 0 0 0
0 0 0 0 0 0 0 0 0 0 0 0 0 0 0 0 0 0 0 0 0 0 0 0 0 0 0 0 0 0 0 0 0 0 0 0 0 0 0 0 0 0 0
0 0 0 0 0 0 0 0 0 0 0 0 0 0 0 0 0 0 0 0 0 0 0 0 0 0 0 0 0 0 0 0 0 0 0 0 0 0 0 0 0 0 0
0 0 0 0 0 0 0 0 0 0 0 0 0 0 0 0 0 0 0 0 0 0 0 0 0 0 0 0 0 0 0 0 0 0 0 0 0 0 0 0 0 0 0
0 0 0 0 0 0 0 0 0 0 0 0 0 0 0 0 0 0 0 0 0 0 0 0 0 0 0 0 0 0 0 0 0 0 0 0 0 0 0 0 0 0 0
0 0 0 0 0 0 0 0 0 0 0 0 0 0 0 0 0 0 0 0 0 0 0 0 0 0 0 0 0 -0 0 0 0 0 0 0 0 0 0 0 0 0 0
0 0 0 0 0 0 0 0 0 0 0 0 0 0 0 0 0 0 0 0 0 0 0 0 0 0 0 0 0 0 0 0 0 0 0 0 0 0 0 0 0 0 0
0 0 0 0 0 0 0 0 0 0 0 0 0 0 0 0 0 0 0 0 0 0 0 0 0 0 0 0 0 -0 0 -0 0 0 0 0 0 0 0 0 0 0 0
0 0 0 0 0 0 0 0 0 0 0 0 0 0 0 0 0 0 0 0 0 0 0 0 0 0 0 0 0 0 0 0 0 0 0 0 0 0 0 0 0 0 0
0 0 0 0 0 0 0 0 0 0 0 0 0 0 0 0 0 0 0 0 0 0 0 0 0 0 0 0 0 0 0 0 0 0 0 0 0 0 0 0 0 0 0
0 0 0 0 0 0 0 0 0 0 0 0 0 0 0 0 0 0 0 0 0 0 0 0 0 0 0 0 0 0 0 0 0 0 0 0 0 0 0 0 0 0 0
0 0 0 0 0 0 0 0 0 0 0 0 0 0 0 0 0 0 0 0 0 0 0 0 0 0 0 0 0 0 0 0 0 0 0 0 0 0 0 0 0 0 0
0 0 0 0 0 0 0 0 0 0 0 0 0 0 0 0 0 0 0 0 0 0 0 0 0 0 0 0 0 0 0 0 0 0 0 0 0 0 0 0 0 0 0
0 0 0 0 0 0 0 0 0 0 0 0 0 0 0 0 0 0 0 0 0 0 0 0 0 0 0 0 0 0 0 0 0 0 0 0 0 0 0 0 0 0 0
0 0 0 0 0 0 0 0 0 0 0 0 0 0 0 0 0 0 0 0 0 0 0 0 0 0 0 0 0 0 0 0 0 0 0 0 0 0 0 0 0 0 0
0 0 0 0 0 0 0 0 0 0 0 0 0 0 0 0 0 0 0 0 0 0 0 0 0 0 0 0 0 0 0 0 0 0 0 0 0 0 0 0 0 0 0
0 0 0 0 0 0 0 0 0 0 0 0 0 0 0 0 0 0 0 0 0 0 0 0 0 0 0 0 0 0 0 0 0 0 0 0 0 0 0 0 0 0 0
0 0 0 0 0 0 0 0 0 0 0 0 0 0 0 0 0 0 0 0 0 0 0 0 0 0 0 0 0 0 0 0 0 0 0 0 0 0 0 0 0 0 0
Wind_Speed_500mb
10 8 7 5 4 4 4 5 4 3 5 6 8 11 14 16 21 24 24 29 30 26 25 28 28 27 32 31 31 31 31 30 34 37 42 45 45 44 45 48 51 52 53
10 7 5 3 2 1 2 2 1 0 2 3 8 11 15 18 22 24 27 29 25 24 27 29 31 32 34 33 33 35 33 35 38 40 45 48 47 49 48 56 56 64 67
14 13 10 7 5 3 5 3 3 2 1 7 11 14 18 21 23 24 24 22 21 24 28 29 30 30 31 33 35 34 34 38 39 40 45 48 50 53 54 56 58 59 60
20 18 15 12 10 7 5 2 5 8 8 14 17 21 22 20 24 20 20 21 21 25 23 27 29 30 31 32 31 31 32 35 43 49 51 53 56 58 60 61 63 64 64
22 21 21 18 13 9 8 10 11 14 17 23 24 26 25 23 17 18 17 22 20 18 26 28 30 31 29 29 33 34 38 44 49 51 52 56 60 63 64 66 68 67 67
22 17 15 16 14 15 15 15 16 17 21 25 32 30 22 16 12 13 16 18 12 18 28 29 30 30 31 31 31 37 43 48 55 60 64 66 67 69 71 68 66 66 68
26 25 19 20 20 19 22 22 22 23 25 28 34 20 21 14 15 9 9 11 11 29 28 29 23 26 28 27 36 47 53 57 59 61 64 66 68 70 68 65 68 70 72
35 34 28 25 26 27 28 28 28 26 27 30 28 26 4 5 8 15 5 16 20 27 28 21 26 25 32 37 49 55 57 58 59 61 64 66 68 69 70 70 69 71 73
38 36 36 35 34 33 35 36 31 29 30 32 31 14 7 6 10 8 3 14 28 30 25 28 34 31 38 47 54 57 59 58 59 60 61 62 64 67 69 71 75 78 79
42 40 41 38 39 42 40 39 34 31 32 31 29 27 21 19 6 2 9 14 25 25 23 29 22 34 41 50 55 57 57 57 57 58 60 65 67 68 70 71 71 74 76
47 38 45 45 45 45 45 39 33 37 33 32 32 28 22 18 16 14 11 15 19 21 24 31 20 38 44 50 54 55 55 55 58 61 62 63 65 65 66 70 73 76 77
49 42 44 47 52 49 45 40 39 37 34 33 34 29 22 17 15 13 12 14 11 12 17 23 22 36 45 49 49 50 53 56 58 59 60 63 64 65 64 66 70 74 73
58 51 45 44 50 48 45 43 40 35 34 35 32 25 20 17 13 12 11 12 9 7 12 10 23 34 43 46 46 49 51 54 56 58 61 62 60 59 56 62 66 69 69
59 56 45 38 41 47 45 43 38 38 35 32 28 23 18 15 14 14 14 14 14 8 12 10 25 33 41 45 48 51 50 52 53 55 57 57 58 53 53 56 60 64 67
68 59 48 44 43 44 45 44 43 42 35 32 28 23 18 17 16 13 12 13 15 8 4 17 19 35 40 42 45 48 48 46 50 52 54 55 55 52 52 51 53 57 61
71 67 59 50 47 48 49 47 46 40 36 32 27 22 19 19 16 12 11 11 13 16 11 21 26 35 41 42 44 47 45 47 48 50 52 53 52 47 41 44 48 50 60
74 75 66 56 51 50 52 49 46 42 37 32 27 23 21 18 15 12 9 12 16 18 22 27 31 35 39 43 42 42 44 45 48 49 53 51 50 44 38 44 46 49 57
78 76 72 58 49 51 49 50 47 42 38 33 28 25 22 17 14 9 9 12 17 22 24 28 31 35 36 39 40 41 40 40 45 47 49 50 50 43 37 42 45 52 57
80 78 73 58 53 53 53 53 49 44 39 34 29 26 22 19 14 10 9 13 18 24 27 28 30 32 35 39 41 36 36 36 39 43 47 47 46 44 41 44 46 49 59
79 83 70 53 56 55 58 56 51 45 40 34 32 29 25 20 14 10 11 13 19 24 27 30 31 30 34 36 38 43 37 36 37 34 41 41 41 41 42 41 41 47 56
74 84 66 57 61 63 62 56 51 46 41 37 34 31 26 21 14 11 14 16 19 23 26 30 30 30 34 37 39 39 39 40 40 34 38 38 39 44 47 37 39 47 56
81 72 67 58 68 65 60 56 50 46 43 39 35 33 28 22 16 15 18 20 21 23 26 27 30 33 35 36 37 37 37 40 37 39 45 40 39 44 48 42 40 47 60
77 78 63 67 68 66 61 56 51 48 43 39 37 34 29 23 17 21 21 21 23 26 30 30 32 33 35 35 36 32 30 34 40 41 47 44 40 43 49 45 41 51 58
75 73 73 74 71 67 63 58 54 49 46 42 40 35 30 20 28 26 24 22 24 25 27 30 32 32 36 36 33 31 32 36 38 40 40 47 44 46 47 46 35 53 54
79 79 77 78 75 69 64 60 56 53 47 44 40 32 24 23 38 34 28 26 27 26 27 30 31 32 34 34 35 32 32 39 42 40 42 38 44 50 49 41 38 47 48
81 80 79 76 70 66 63 59 57 53 48 44 36 28 29 37 44 38 31 29 30 28 30 29 28 29 34 35 36 37 36 40 42 46 39 39 44 44 45 38 50 50 47
Wind_Direction_500mb
160 154 147 135 132 127 132 121 105 73 57 55 48 27 9 5 358 352 348 342 340 337 339 338 337 335 335 337 336 338 336 328 316 312 308 306 305 307 310 310 308 307 305
196 199 199 198 192 191 171 159 247 360 64 47 7 354 350 347 345 337 336 335 337 341 341 337 333 330 331 331 325 327 335 339 332 325 313 310 313 310 310 303 307 302 298
222 225 227 225 211 143 112 112 79 65 27 338 336 332 331 333 334 328 334 340 340 340 337 334 337 337 338 337 340 348 357 0 350 334 327 323 319 319 319 315 316 313 311
232 230 231 230 224 212 167 122 329 325 315 317 315 314 320 319 325 325 333 340 340 342 345 342 344 344 343 344 343 350 356 347 334 334 333 329 326 323 320 318 317 316 316
250 246 234 230 220 202 231 259 277 292 299 309 309 311 311 314 320 325 332 345 337 350 356 347 344 343 346 344 343 347 347 341 336 334 334 332 331 330 330 330 329 328 326
250 258 255 221 212 234 250 262 284 289 295 300 308 317 312 304 298 330 335 356 22 360 347 349 348 349 349 347 353 349 342 341 341 341 338 336 333 331 329 329 331 328 325
251 253 256 247 232 245 263 270 277 284 288 297 303 313 307 293 298 330 21 25 28 352 347 346 353 350 349 350 348 347 349 347 344 340 338 336 334 334 336 337 333 331 326
247 245 248 251 251 257 263 272 273 279 286 295 299 311 267 285 192 320 8 4 348 346 346 356 354 358 358 348 346 348 350 349 346 342 339 338 335 334 333 335 335 331 328
242 243 245 247 253 253 260 264 272 275 283 283 283 280 276 231 293 215 280 350 350 352 359 352 353 358 352 350 348 350 350 347 344 341 339 337 334 331 330 329 329 330 328
250 242 250 246 251 253 256 260 262 272 273 270 268 274 265 266 252 233 300 333 345 345 350 352 355 353 350 351 351 349 347 345 344 342 341 340 338 337 338 340 338 334 330
246 254 249 248 248 256 259 255 265 274 262 261 263 269 263 252 249 249 274 308 347 344 345 351 353 351 350 350 349 345 344 343 346 346 346 344 344 348 346 344 341 337 333
246 246 253 249 248 254 256 260 270 263 255 253 258 262 244 239 237 247 265 299 331 336 343 344 343 345 348 349 346 345 347 348 350 350 350 351 353 351 351 350 349 345 342
237 245 249 250 254 255 253 259 260 247 245 249 249 237 235 242 265 284 296 309 328 340 339 343 340 343 347 348 351 353 356 353 352 354 355 356 354 354 355 360 3 3 5
241 243 240 243 253 253 253 258 243 237 245 235 230 231 240 260 282 297 313 332 340 340 341 314 337 341 347 354 358 356 359 356 353 357 357 355 353 355 2 5 4 3 2
239 235 238 242 248 247 251 247 240 243 228 221 223 228 244 263 276 288 312 336 352 347 293 322 331 340 350 359 0 356 1 355 357 358 355 351 353 355 1 2 6 4 3
235 232 236 236 241 245 242 240 236 222 219 219 222 232 248 264 272 288 314 329 352 346 340 326 330 343 353 0 3 3 360 359 356 354 349 350 351 351 357 358 357 359 360
233 228 231 228 232 239 238 232 218 216 217 219 227 237 247 254 264 279 309 325 344 345 342 334 339 346 352 357 3 1 358 357 351 347 349 348 348 346 346 349 351 350 355
231 234 222 221 234 231 229 218 216 216 217 221 229 238 243 242 246 264 294 323 334 339 341 338 339 347 349 352 357 357 357 354 347 347 347 347 345 341 336 340 349 345 351
227 228 216 219 237 228 216 212 214 215 218 223 231 235 234 230 232 249 289 316 330 333 336 337 337 338 346 347 349 354 353 349 350 344 347 348 343 339 333 333 336 346 355
220 220 211 225 233 220 213 212 213 215 219 224 229 227 222 219 221 250 284 312 323 330 332 332 336 336 343 344 345 340 344 348 349 346 346 349 348 346 332 324 331 338 346
223 212 216 231 221 212 212 212 213 217 221 224 225 221 216 214 225 254 285 302 317 323 328 330 332 334 336 338 340 336 334 339 344 344 351 343 347 347 348 337 330 337 343
227 208 217 227 213 210 211 212 215 220 222 222 220 216 212 216 228 256 275 298 308 315 321 325 330 330 331 330 329 329 327 333 341 334 337 343 340 343 346 341 336 338 341
218 212 225 218 212 211 213 213 215 219 221 222 217 214 212 219 241 262 271 287 301 310 317 322 324 321 319 322 319 317 315 321 325 326 326 329 335 337 338 339 331 336 339
212 220 220 211 212 212 212 214 216 218 219 217 216 216 219 231 263 259 265 278 289 298 308 313 316 314 312 314 314 309 305 309 313 316 320 317 329 332 335 334 331 337 338
220 218 215 212 212 212 212 214 216 218 218 216 214 218 233 252 259 260 264 271 280 290 301 305 307 309 307 308 305 298 296 302 309 311 314 309 325 326 332 331 330 337 337
222 218 213 213 215 215 216 217 217 217 217 214 211 226 243 252 259 261 265 268 275 282 289 292 295 299 301 301 295 288 287 291 298 309 306 306 315 325 328 323 328 336 336
Wind_Speed_850mb
10 8 7 5 4 4 4 5 4 3 5 6 8 11 14 16 21 24 24 29 30 26 25 28 28 27 32 31 31 31 31 30 34 37 42 45 45 44 45 48 51 52 53
10 7 5 3 2 1 2 2 1 0 2 3 8 11 15 18 22 24 27 29 25 24 27 29 31 32 34 33 33 35 33 35 38 40 45 48 47 49 48 56 56 64 67
14 13 10 7 5 3 5 3 3 2 1 7 11 14 18 21 23 24 24 22 21 24 28 29 30 30 31 33 35 34 34 38 39 40 45 48 50 53 54 56 58 59 60
20 18 15 12 10 7 5 2 5 8 8 14 17 21 22 20 24 20 20 21 21 25 23 27 29 30 31 32 31 31 32 35 43 49 51 53 56 58 60 61 63 64 64
22 21 21 18 13 9 8 10 11 14 17 23 24 26 25 23 17 18 17 22 20 18 26 28 30 31 29 29 33 34 38 44 49 51 52 56 60 63 64 66 68 67 67
22 17 15 16 14 15 15 15 16 17 21 25 32 30 22 16 12 13 16 18 12 18 28 29 30 30 31 31 31 37 43 48 55 60 64 66 67 69 71 68 66 66 68
26 25 19 20 20 19 22 22 22 23 25 28 34 20 21 14 15 9 9 11 11 29 28 29 23 26 28 27 36 47 53 57 59 61 64 66 68 70 68 65 68 70 72
35 34 28 25 26 27 28 28 28 26 27 30 28 26 4 5 8 15 5 16 20 27 28 21 26 25 32 37 49 55 57 58 59 61 64 66 68 69 70 70 69 71 73
38 36 36 35 34 33 35 36 31 29 30 32 31 14 7 6 10 8 3 14 28 30 25 28 34 31 38 47 54 57 59 58 59 60 61 62 64 67 69 71 75 78 79
42 40 41 38 39 42 40 39 34 31 32 31 29 27 21 19 6 2 9 14 25 25 23 29 22 34 41 50 55 57 57 57 57 58 60 65 67 68 70 71 71 74 76
47 38 45 45 45 45 45 39 33 37 33 32 32 28 22 18 16 14 11 15 19 21 24 31 20 38 44 50 54 55 55 55 58 61 62 63 65 65 66 70 73 76 77
49 42 44 47 52 49 45 40 39 37 34 33 34 29 22 17 15 13 12 14 11 12 17 23 22 36 45 49 49 50 53 56 58 59 60 63 64 65 64 66 70 74 73
58 51 45 44 50 48 45 43 40 35 34 35 32 25 20 17 13 12 11 12 9 7 12 10 23 34 43 46 46 49 51 54 56 58 61 62 60 59 56 62 66 69 69
59 56 45 38 41 47 45 43 38 38 35 32 28 23 18 15 14 14 14 14 14 8 12 10 25 33 41 45 48 51 50 52 53 55 57 57 58 53 53 56 60 64 67
68 59 48 44 43 44 45 44 43 42 35 32 28 23 18 17 16 13 12 13 15 8 4 17 19 35 40 42 45 48 48 46 50 52 54 55 55 52 52 51 53 57 61
71 67 59 50 47 48 49 47 46 40 36 32 27 22 19 19 16 12 11 11 13 16 11 21 26 35 41 42 44 47 45 47 48 50 52 53 52 47 41 44 48 50 60
74 75 66 56 51 50 52 49 46 42 37 32 27 23 21 18 15 12 9 12 16 18 22 27 31 35 39 43 42 42 44 45 48 49 53 51 50 44 38 44 46 49 57
78 76 72 58 49 51 49 50 47 42 38 33 28 25 22 17 14 9 9 12 17 22 24 28 31 35 36 39 40 41 40 40 45 47 49 50 50 43 37 42 45 52 57
80 78 73 58 53 53 53 53 49 44 39 34 29 26 22 19 14 10 9 13 18 24 27 28 30 32 35 39 41 36 36 36 39 43 47 47 46 44 41 44 46 49 59
79 83 70 53 56 55 58 56 51 45 40 34 32 29 25 20 14 10 11 13 19 24 27 30 31 30 34 36 38 43 37 36 37 34 41 41 41 41 42 41 41 47 56
74 84 66 57 61 63 62 56 51 46 41 37 34 31 26 21 14 11 14 16 19 23 26 30 30 30 34 37 39 39 39 40 40 34 38 38 39 44 47 37 39 47 56
81 72 67 58 68 65 60 56 50 46 43 39 35 33 28 22 16 15 18 20 21 23 26 27 30 33 35 36 37 37 37 40 37 39 45 40 39 44 48 42 40 47 60
77 78 63 67 68 66 61 56 51 48 43 39 37 34 29 23 17 21 21 21 23 26 30 30 32 33 35 35 36 32 30 34 40 41 47 44 40 43 49 45 41 51 58
75 73 73 74 71 67 63 58 54 49 46 42 40 35 30 20 28 26 24 22 24 25 27 30 32 32 36 36 33 31 32 36 38 40 40 47 44 46 47 46 35 53 54
79 79 77 78 75 69 64 60 56 53 47 44 40 32 24 23 38 34 28 26 27 26 27 30 31 32 34 34 35 32 32 39 42 40 42 38 44 50 49 41 38 47 48
81 80 79 76 70 66 63 59 57 53 48 44 36 28 29 37 44 38 31 29 30 28 30 29 28 29 34 35 36 37 36 40 42 46 39 39 44 44 45 38 50 50 47
Wind_Direction_850mb
160 154 147 135 132 127 132 121 105 73 57 55 48 27 9 5 358 352 348 342 340 337 339 338 337 335 335 337 336 338 336 328 316 312 308 306 305 307 310 310 308 307 305
196 199 199 198 192 191 171 159 247 360 64 47 7 354 350 347 345 337 336 335 337 341 341 337 333 330 331 331 325 327 335 339 332 325 313 310 313 310 310 303 307 302 298
222 225 227 225 211 143 112 112 79 65 27 338 336 332 331 333 334 328 334 340 340 340 337 334 337 337 338 337 340 348 357 0 350 334 327 323 319 319 319 315 316 313 311
232 230 231 230 224 212 167 122 329 325 315 317 315 314 320 319 325 325 333 340 340 342 345 342 344 344 343 344 343 350 356 347 334 334 333 329 326 323 320 318 317 316 316
250 246 234 230 220 202 231 259 277 292 299 309 309 311 311 314 320 325 332 345 337 350 356 347 344 343 346 344 343 347 347 341 336 334 334 332 331 330 330 330 329 328 326
250 258 255 221 212 234 250 262 284 289 295 300 308 317 312 304 298 330 335 356 22 360 347 349 348 349 349 347 353 349 342 341 341 341 338 336 333 331 329 329 331 328 325
251 253 256 247 232 245 263 270 277 284 288 297 303 313 307 293 298 330 21 25 28 352 347 346 353 350 349 350 348 347 349 347 344 340 338 336 334 334 336 337 333 331 326
247 245 248 251 251 257 263 272 273 279 286 295 299 311 267 285 192 320 8 4 348 346 346 356 354 358 358 348 346 348 350 349 346 342 339 338 335 334 333 335 335 331 328
242 243 245 247 253 253 260 264 272 275 283 283 283 280 276 231 293 215 280 350 350 352 359 352 353 358 352 350 348 350 350 347 344 341 339 337 334 331 330 329 329 330 328
250 242 250 246 251 253 256 260 262 272 273 270 268 274 265 266 252 233 300 333 345 345 350 352 355 353 350 351 351 349 347 345 344 342 341 340 338 337 338 340 338 334 330
246 254 249 248 248 256 259 255 265 274 262 261 263 269 263 252 249 249 274 308 347 344 345 351 353 351 350 350 349 345 344 343 346 346 346 344 344 348 346 344 341 337 333
246 246 253 249 248 254 256 260 270 263 255 253 258 262 244 239 237 247 265 299 331 336 343 344 343 345 348 349 346 345 347 348 350 350 350 351 353 351 351 350 349 345 342
237 245 249 250 254 255 253 259 260 247 245 249 249 237 235 242 265 284 296 309 328 340 339 343 340 343 347 348 351 353 356 353 352 354 355 356 354 354 355 360 3 3 5
241 243 240 243 253 253 253 258 243 237 245 235 230 231 240 260 282 297 313 332 340 340 341 314 337 341 347 354 358 356 359 356 353 357 357 355 353 355 2 5 4 3 2
239 235 238 242 248 247 251 247 240 243 228 221 223 228 244 263 276 288 312 336 352 347 293 322 331 340 350 359 0 356 1 355 357 358 355 351 353 355 1 2 6 4 3
235 232 236 236 241 245 242 240 236 222 219 219 222 232 248 264 272 288 314 329 352 346 340 326 330 343 353 0 3 3 360 359 356 354 349 350 351 351 357 358 357 359 360
233 228 231 228 232 239 238 232 218 216 217 219 227 237 247 254 264 279 309 325 344 345 342 334 339 346 352 357 3 1 358 357 351 347 349 348 348 346 346 349 351 350 355
231 234 222 221 234 231 229 218 216 216 217 221 229 238 243 242 246 264 294 323 334 339 341 338 339 347 349 352 357 357 357 354 347 347 347 347 345 341 336 340 349 345 351
227 228 216 219 237 228 216 212 214 215 218 223 231 235 234 230 232 249 289 316 330 333 336 337 337 338 346 347 349 354 353 349 350 344 347 348 343 339 333 333 336 346 355
220 220 211 225 233 220 213 212 213 215 219 224 229 227 222 219 221 250 284 312 323 330 332 332 336 336 343 344 345 340 344 348 349 346 346 349 348 346 332 324 331 338 346
223 212 216 231 221 212 212 212 213 217 221 224 225 221 216 214 225 254 285 302 317 323 328 330 332 334 336 338 340 336 334 339 344 344 351 343 347 347 348 337 330 337 343
227 208 217 227 213 210 211 212 215 220 222 222 220 216 212 216 228 256 275 298 308 315 321 325 330 330 331 330 329 329 327 333 341 334 337 343 340 343 346 341 336 338 341
218 212 225 218 212 211 213 213 215 219 221 222 217 214 212 219 241 262 271 287 301 310 317 322 324 321 319 322 319 317 315 321 325 326 326 329 335 337 338 339 331 336 339
212 220 220 211 212 212 212 214 216 218 219 217 216 216 219 231 263 259 265 278 289 298 308 313 316 314 312 314 314 309 305 309 313 316 320 317 329 332 335 334 331 337 338
220 218 215 212 212 212 212 214 216 218 218 216 214 218 233 252 259 260 264 271 280 290 301 305 307 309 307 308 305 298 296 302 309 311 314 309 325 326 332 331 330 337 337
222 218 213 213 215 215 216 217 217 217 217 214 211 226 243 252 259 261 265 268 275 282 289 292 295 299 301 301 295 288 287 291 298 309 306 306 315 325 328 323 328 336 336